| time (UTC) | temp C | wind direction | speed KPH | gust KPH | rain 1hr cm | rain 24hr cm | rain mn cm | humidity % | barometer mb |
| 20260906173456 | 26 | 128 | 12.9 | 14.5 | 0.00 | 0.00 | 0.00 | 71 | 1023.0 |
| 20260906172955 | 26 | 130 | 6.4 | 12.9 | 0.00 | 0.00 | 0.00 | 71 | 1023.4 |
| 20260906172455 | 26 | 178 | 8.0 | 12.9 | 0.00 | 0.00 | 0.00 | 69 | 1023.4 |
| 20260906171955 | 26 | 357 | 1.6 | 11.3 | 0.00 | 0.00 | 0.00 | 73 | 1023.4 |
| 20260906171455 | 26 | 73 | 3.2 | 11.3 | 0.00 | 0.00 | 0.00 | 71 | 1023.4 |
| 20260906170955 | 25 | 109 | 3.2 | 12.9 | 0.00 | 0.00 | 0.00 | 73 | 1023.4 |
| 20260906170456 | 25 | 126 | 9.7 | 12.9 | 0.00 | 0.00 | 0.00 | 74 | 1023.4 |
| 20260906165955 | 25 | 175 | 9.7 | 14.5 | 0.00 | 0.00 | 0.00 | 73 | 1023.4 |
| 20260906165455 | 25 | 168 | 11.3 | 16.1 | 0.00 | 0.00 | 0.00 | 73 | 1023.4 |
| 20260906164955 | 25 | 149 | 11.3 | 16.1 | 0.00 | 0.00 | 0.00 | 73 | 1023.4 |
| 20260906164456 | 25 | 186 | 6.4 | 11.3 | 0.00 | 0.00 | 0.00 | 71 | 1023.7 |
| 20260906163955 | 25 | 119 | 0.0 | 12.9 | 0.00 | 0.00 | 0.00 | 73 | 1023.7 |
| 20260906163455 | 25 | 128 | 8.0 | 14.5 | 0.00 | 0.00 | 0.00 | 70 | 1023.7 |
| 20260906162955 | 25 | 159 | 11.3 | 14.5 | 0.00 | 0.00 | 0.00 | 71 | 1023.4 |
| 20260906162456 | 25 | 72 | 0.0 | 11.3 | 0.00 | 0.00 | 0.00 | 74 | 1023.4 |
| 20260906161956 | 25 | 127 | 8.0 | 11.3 | 0.00 | 0.00 | 0.00 | 73 | 1023.4 |
| 20260906161455 | 25 | 130 | 0.0 | 9.7 | 0.00 | 0.00 | 0.00 | 73 | 1023.4 |
| 20260906160955 | 25 | 78 | 1.6 | 11.3 | 0.00 | 0.00 | 0.00 | 73 | 1023.4 |
| 20260906160455 | 25 | 127 | 6.4 | 11.3 | 0.00 | 0.00 | 0.00 | 77 | 1023.4 |
| 20260906155955 | 24 | 137 | 1.6 | 12.9 | 0.00 | 0.00 | 0.00 | 76 | 1023.4 |
| 20260906155455 | 24 | 95 | 3.2 | 11.3 | 0.00 | 0.00 | 0.00 | 74 | 1023.4 |
| 20260906154955 | 24 | 90 | 6.4 | 11.3 | 0.00 | 0.00 | 0.00 | 78 | 1023.4 |
| 20260906154455 | 23 | 118 | 0.0 | 1.6 | 0.00 | 0.00 | 0.00 | 76 | 1023.4 |
| 20260906153955 | 23 | 134 | 0.0 | 4.8 | 0.00 | 0.00 | 0.00 | 80 | 1023.4 |
| 20260906153455 | 23 | 129 | 1.6 | 9.7 | 0.00 | 0.00 | 0.00 | 77 | 1023.7 |
| 20260906152955 | 23 | 137 | 6.4 | 12.9 | 0.00 | 0.00 | 0.00 | 77 | 1023.4 |
| 20260906152455 | 23 | 51 | 0.0 | 12.9 | 0.00 | 0.00 | 0.00 | 79 | 1023.4 |
| 20260906151956 | 22 | 56 | 6.4 | 11.3 | 0.00 | 0.00 | 0.00 | 79 | 1023.4 |
| 20260906151455 | 22 | 129 | 6.4 | 16.1 | 0.00 | 0.00 | 0.00 | 81 | 1023.4 |
| 20260906150955 | 22 | 75 | 8.0 | 16.1 | 0.00 | 0.00 | 0.00 | 84 | 1023.4 |
| 20260906150456 | 22 | 41 | 1.6 | 8.0 | 0.00 | 0.00 | 0.00 | 85 | 1023.4 |
| 20260906145955 | 21 | 64 | 1.6 | 11.3 | 0.00 | 0.00 | 0.00 | 85 | 1023.4 |
| 20260906145456 | 21 | 48 | 1.6 | 14.5 | 0.00 | 0.00 | 0.00 | 85 | 1023.4 |
| 20260906144956 | 21 | 53 | 1.6 | 11.3 | 0.00 | 0.00 | 0.00 | 87 | 1023.4 |
| 20260906144456 | 21 | 25 | 3.2 | 9.7 | 0.00 | 0.00 | 0.00 | 88 | 1023.4 |
| 20260906143955 | 21 | 61 | 3.2 | 11.3 | 0.00 | 0.00 | 0.00 | 90 | 1023.0 |
| 20260906143455 | 20 | 119 | 4.8 | 12.9 | 0.00 | 0.00 | 0.00 | 90 | 1023.4 |
| 20260906142956 | 20 | 84 | 6.4 | 14.5 | 0.00 | 0.00 | 0.00 | 90 | 1023.4 |
| 20260906142455 | 20 | 9 | 8.0 | 11.3 | 0.00 | 0.00 | 0.00 | 93 | 1023.0 |
| 20260906141955 | 19 | 35 | 0.0 | 0.0 | 0.00 | 0.00 | 0.00 | 97 | 1023.0 |
| 20260906141456 | 18 | 56 | 0.0 | 0.0 | 0.00 | 0.00 | 0.00 | 99 | 1023.0 |
| 20260906140956 | 18 | 82 | 0.0 | 0.0 | 0.00 | 0.00 | 0.00 | 100 | 1023.0 |
| 20260906140457 | 17 | 45 | 0.0 | 0.0 | 0.00 | 0.00 | 0.00 | 100 | 1023.4 |
| 20260906135955 | 17 | 57 | 1.6 | 11.3 | 0.00 | 0.00 | 0.00 | 100 | 1023.4 |
| 20260906135455 | 17 | 103 | 6.4 | 12.9 | 0.00 | 0.00 | 0.00 | 100 | 1023.4 |
| 20260906134956 | 17 | 58 | 6.4 | 11.3 | 0.00 | 0.00 | 0.00 | 100 | 1023.4 |
| 20260906134455 | 17 | 55 | 4.8 | 11.3 | 0.00 | 0.00 | 0.00 | 100 | 1023.0 |
| 20260906133955 | 17 | 110 | 6.4 | 11.3 | 0.00 | 0.00 | 0.00 | 100 | 1023.0 |
| 20260906133455 | 17 | 33 | 6.4 | 11.3 | 0.00 | 0.00 | 0.00 | 100 | 1023.0 |
| 20260906132957 | 16 | 54 | 4.8 | 9.7 | 0.00 | 0.00 | 0.00 | 100 | 1023.0 |
| 20260906132455 | 16 | 131 | 4.8 | 11.3 | 0.00 | 0.00 | 0.00 | 100 | 1023.0 |
| 20260906131955 | 16 | 39 | 6.4 | 11.3 | 0.00 | 0.00 | 0.00 | 100 | 1023.0 |
| 20260906131455 | 16 | 26 | 6.4 | 12.9 | 0.00 | 0.00 | 0.00 | 100 | 1023.0 |
| 20260906130956 | 16 | 55 | 3.2 | 6.4 | 0.00 | 0.00 | 0.00 | 100 | 1023.0 |
| 20260906130457 | 16 | 69 | 1.6 | 8.0 | 0.00 | 0.00 | 0.00 | 100 | 1023.4 |
| 20260906125955 | 16 | 52 | 4.8 | 9.7 | 0.00 | 0.00 | 0.00 | 100 | 1023.0 |
| 20260906125455 | 16 | 40 | 4.8 | 6.4 | 0.00 | 0.00 | 0.00 | 100 | 1023.0 |
| 20260906124955 | 16 | 110 | 3.2 | 4.8 | 0.00 | 0.00 | 0.00 | 100 | 1023.0 |
| 20260906124455 | 15 | 60 | 0.0 | 3.2 | 0.00 | 0.00 | 0.00 | 100 | 1023.0 |
| 20260906123955 | 15 | 74 | 1.6 | 3.2 | 0.00 | 0.00 | 0.00 | 100 | 1022.7 |
| 20260906123455 | 15 | 118 | 0.0 | 1.6 | 0.00 | 0.00 | 0.00 | 100 | 1022.7 |
| 20260906122956 | 15 | 135 | 0.0 | 1.6 | 0.00 | 0.00 | 0.00 | 100 | 1022.7 |
| 20260906122455 | 15 | 93 | 0.0 | 3.2 | 0.00 | 0.00 | 0.00 | 100 | 1022.7 |
| 20260906121956 | 15 | 43 | 0.0 | 3.2 | 0.00 | 0.00 | 0.00 | 100 | 1022.7 |
| 20260906121456 | 15 | 292 | 1.6 | 6.4 | 0.00 | 0.00 | 0.00 | 100 | 1022.7 |
| 20260906120957 | 14 | 48 | 1.6 | 3.2 | 0.00 | 0.00 | 0.00 | 100 | 1022.7 |
| 20260906120455 | 13 | 7 | 1.6 | 3.2 | 0.00 | 0.00 | 0.00 | 100 | 1022.7 |
| 20260906115956 | 13 | 69 | 0.0 | 0.0 | 0.00 | 0.00 | 0.00 | 100 | 1022.7 |
| 20260906115456 | 13 | 52 | 0.0 | 1.6 | 0.00 | 0.00 | 0.00 | 100 | 1022.7 |
| 20260906114956 | 13 | 88 | 0.0 | 0.0 | 0.00 | 0.00 | 0.00 | 100 | 1022.7 |
| 20260906114455 | 13 | 76 | 0.0 | 0.0 | 0.00 | 0.00 | 0.00 | 100 | 1022.7 |
| 20260906113955 | 13 | 76 | 0.0 | 0.0 | 0.00 | 0.00 | 0.00 | 100 | 1022.7 |
| 20260906113455 | 13 | 66 | 0.0 | 0.0 | 0.00 | 0.00 | 0.00 | 100 | 1022.7 |
| 20260906112955 | 13 | 51 | 0.0 | 0.0 | 0.00 | 0.00 | 0.00 | 100 | 1022.7 |
| 20260906112455 | 13 | 74 | 0.0 | 3.2 | 0.00 | 0.00 | 0.00 | 100 | 1022.7 |
| 20260906111956 | 13 | 60 | 3.2 | 4.8 | 0.00 | 0.00 | 0.00 | 100 | 1022.7 |
| 20260906111455 | 13 | 42 | 0.0 | 1.6 | 0.00 | 0.00 | 0.00 | 100 | 1022.4 |
| 20260906110955 | 13 | 70 | 0.0 | 0.0 | 0.00 | 0.00 | 0.00 | 100 | 1022.4 |
| 20260906110455 | 14 | 67 | 0.0 | 0.0 | 0.00 | 0.00 | 0.00 | 100 | 1022.4 |
| 20260906105955 | 14 | 48 | 0.0 | 3.2 | 0.00 | 0.00 | 0.00 | 100 | 1022.4 |
| 20260906105459 | 14 | 45 | 1.6 | 3.2 | 0.00 | 0.00 | 0.00 | 100 | 1022.0 |
| 20260906104955 | 14 | 50 | 0.0 | 0.0 | 0.00 | 0.00 | 0.00 | 100 | 1022.0 |
| 20260906104456 | 14 | 46 | 0.0 | 0.0 | 0.00 | 0.00 | 0.00 | 100 | 1022.0 |
| 20260906103955 | 14 | 52 | 0.0 | 0.0 | 0.00 | 0.00 | 0.00 | 100 | 1022.0 |
| 20260906103455 | 14 | 50 | 0.0 | 0.0 | 0.00 | 0.00 | 0.00 | 100 | 1022.0 |
| 20260906102955 | 14 | 53 | 0.0 | 0.0 | 0.00 | 0.00 | 0.00 | 100 | 1022.0 |
| 20260906102455 | 15 | 46 | 0.0 | 0.0 | 0.00 | 0.00 | 0.00 | 100 | 1022.0 |
| 20260906101955 | 15 | 71 | 0.0 | 0.0 | 0.00 | 0.00 | 0.00 | 100 | 1021.7 |
| 20260906101455 | 15 | 68 | 0.0 | 0.0 | 0.00 | 0.00 | 0.00 | 100 | 1021.7 |
| 20260906100958 | 15 | 63 | 0.0 | 0.0 | 0.00 | 0.00 | 0.00 | 100 | 1021.7 |
| 20260906100456 | 15 | 18 | 0.0 | 0.0 | 0.00 | 0.00 | 0.00 | 100 | 1021.7 |
| 20260906095955 | 16 | 43 | 0.0 | 0.0 | 0.00 | 0.00 | 0.00 | 100 | 1021.7 |
| 20260906095455 | 16 | 1 | 0.0 | 6.4 | 0.00 | 0.00 | 0.00 | 100 | 1021.3 |
| 20260906094956 | 15 | 26 | 3.2 | 4.8 | 0.00 | 0.00 | 0.00 | 100 | 1021.3 |
| 20260906094456 | 15 | 55 | 0.0 | 6.4 | 0.00 | 0.00 | 0.00 | 100 | 1021.3 |
| 20260906093955 | 16 | 63 | 1.6 | 6.4 | 0.00 | 0.00 | 0.00 | 100 | 1021.3 |
| 20260906093456 | 16 | 57 | 0.0 | 0.0 | 0.00 | 0.00 | 0.00 | 100 | 1021.3 |
| 20260906092955 | 16 | 42 | 0.0 | 0.0 | 0.00 | 0.00 | 0.00 | 100 | 1021.3 |
| 20260906092455 | 16 | 68 | 0.0 | 0.0 | 0.00 | 0.00 | 0.00 | 100 | 1021.7 |
| 20260906091955 | 16 | 57 | 0.0 | 0.0 | 0.00 | 0.00 | 0.00 | 100 | 1021.7 |
| 20260906091455 | 16 | 49 | 0.0 | 0.0 | 0.00 | 0.00 | 0.00 | 100 | 1022.0 |
| 20260906090955 | 16 | 53 | 0.0 | 0.0 | 0.00 | 0.00 | 0.00 | 100 | 1022.0 |
| 20260906090455 | 16 | 75 | 0.0 | 0.0 | 0.00 | 0.00 | 0.00 | 100 | 1021.7 |
| 20260906085956 | 16 | 63 | 0.0 | 0.0 | 0.00 | 0.00 | 0.00 | 100 | 1021.7 |
| 20260906085456 | 16 | 70 | 0.0 | 0.0 | 0.00 | 0.00 | 0.00 | 100 | 1021.7 |
| 20260906084955 | 17 | 62 | 0.0 | 0.0 | 0.00 | 0.00 | 0.00 | 100 | 1022.0 |
| 20260906084455 | 17 | 58 | 0.0 | 0.0 | 0.00 | 0.00 | 0.00 | 100 | 1022.0 |
| 20260906083958 | 17 | 47 | 0.0 | 0.0 | 0.00 | 0.00 | 0.00 | 100 | 1022.0 |
| 20260906083456 | 17 | 48 | 0.0 | 0.0 | 0.00 | 0.00 | 0.00 | 100 | 1022.0 |
| 20260906082955 | 17 | 15 | 0.0 | 4.8 | 0.00 | 0.00 | 0.00 | 100 | 1022.0 |
| 20260906082455 | 17 | 50 | 1.6 | 4.8 | 0.00 | 0.00 | 0.00 | 100 | 1021.7 |
| 20260906081955 | 17 | 58 | 0.0 | 4.8 | 0.00 | 0.00 | 0.00 | 100 | 1021.7 |
| 20260906081455 | 16 | 49 | 3.2 | 4.8 | 0.00 | 0.00 | 0.00 | 100 | 1021.7 |
| 20260906080956 | 16 | 14 | 0.0 | 0.0 | 0.00 | 0.00 | 0.00 | 100 | 1021.7 |
| 20260906080455 | 16 | 50 | 0.0 | 0.0 | 0.00 | 0.00 | 0.00 | 100 | 1021.7 |
| 20260906075955 | 16 | 71 | 0.0 | 0.0 | 0.00 | 0.00 | 0.00 | 100 | 1021.7 |
| 20260906075455 | 16 | 68 | 0.0 | 0.0 | 0.00 | 0.00 | 0.00 | 100 | 1021.7 |
| 20260906074955 | 17 | 39 | 0.0 | 0.0 | 0.00 | 0.00 | 0.00 | 100 | 1021.7 |
| 20260906074455 | 17 | 49 | 0.0 | 0.0 | 0.00 | 0.00 | 0.00 | 100 | 1021.7 |
| 20260906073955 | 17 | 60 | 0.0 | 0.0 | 0.00 | 0.00 | 0.00 | 100 | 1021.7 |
| 20260906073456 | 17 | 58 | 0.0 | 0.0 | 0.00 | 0.00 | 0.00 | 100 | 1021.7 |
| 20260906072956 | 17 | 44 | 0.0 | 0.0 | 0.00 | 0.00 | 0.00 | 100 | 1021.7 |
| 20260906072456 | 17 | 71 | 0.0 | 0.0 | 0.00 | 0.00 | 0.00 | 100 | 1021.7 |
| 20260906071955 | 17 | 78 | 0.0 | 0.0 | 0.00 | 0.00 | 0.00 | 100 | 1021.7 |
| 20260906071455 | 17 | 53 | 0.0 | 0.0 | 0.00 | 0.00 | 0.00 | 100 | 1021.7 |
| 20260906070956 | 17 | 12 | 0.0 | 0.0 | 0.00 | 0.00 | 0.00 | 100 | 1022.0 |
| 20260906070455 | 17 | 76 | 0.0 | 0.0 | 0.00 | 0.00 | 0.00 | 100 | 1022.0 |
| 20260906065955 | 17 | 49 | 0.0 | 0.0 | 0.00 | 0.00 | 0.00 | 100 | 1022.0 |
| 20260906065455 | 17 | 60 | 0.0 | 0.0 | 0.00 | 0.00 | 0.00 | 100 | 1022.0 |
| 20260906064956 | 17 | 55 | 0.0 | 0.0 | 0.00 | 0.00 | 0.00 | 100 | 1022.0 |
| 20260906064455 | 17 | 61 | 0.0 | 0.0 | 0.00 | 0.00 | 0.00 | 100 | 1022.0 |
| 20260906063955 | 17 | 58 | 0.0 | 0.0 | 0.00 | 0.00 | 0.00 | 100 | 1022.0 |
| 20260906063455 | 17 | 63 | 0.0 | 0.0 | 0.00 | 0.00 | 0.00 | 100 | 1022.0 |
| 20260906062955 | 17 | 61 | 0.0 | 0.0 | 0.00 | 0.00 | 0.00 | 100 | 1022.0 |
| 20260906062455 | 17 | 60 | 0.0 | 0.0 | 0.00 | 0.00 | 0.00 | 100 | 1022.0 |
| 20260906061955 | 17 | 51 | 0.0 | 0.0 | 0.00 | 0.00 | 0.00 | 100 | 1022.0 |
| 20260906061456 | 16 | 55 | 0.0 | 0.0 | 0.00 | 0.00 | 0.00 | 100 | 1022.0 |
| 20260906060955 | 16 | 61 | 0.0 | 0.0 | 0.00 | 0.00 | 0.00 | 100 | 1022.0 |
| 20260906060455 | 16 | 64 | 0.0 | 0.0 | 0.00 | 0.00 | 0.00 | 100 | 1022.0 |
| 20260906055955 | 16 | 64 | 0.0 | 0.0 | 0.00 | 0.00 | 0.00 | 100 | 1022.0 |
| 20260906055455 | 16 | 32 | 0.0 | 0.0 | 0.00 | 0.00 | 0.00 | 100 | 1022.0 |
| 20260906054958 | 16 | 25 | 0.0 | 0.0 | 0.00 | 0.00 | 0.00 | 100 | 1021.7 |
| 20260906054455 | 16 | 68 | 0.0 | 0.0 | 0.00 | 0.00 | 0.00 | 100 | 1021.7 |
| 20260906053955 | 17 | 68 | 0.0 | 0.0 | 0.00 | 0.00 | 0.00 | 100 | 1021.7 |
| 20260906053455 | 17 | 75 | 0.0 | 0.0 | 0.00 | 0.00 | 0.00 | 100 | 1021.7 |
| 20260906052955 | 17 | 73 | 0.0 | 0.0 | 0.00 | 0.00 | 0.00 | 100 | 1021.7 |
| 20260906052455 | 17 | 58 | 0.0 | 0.0 | 0.00 | 0.00 | 0.00 | 100 | 1021.7 |
| 20260906051955 | 17 | 68 | 0.0 | 0.0 | 0.00 | 0.00 | 0.00 | 100 | 1021.7 |
| 20260906051456 | 17 | 69 | 0.0 | 0.0 | 0.00 | 0.00 | 0.00 | 100 | 1021.7 |
| 20260906050955 | 17 | 51 | 0.0 | 0.0 | 0.00 | 0.00 | 0.00 | 100 | 1021.7 |
| 20260906050455 | 17 | 94 | 0.0 | 0.0 | 0.00 | 0.00 | 0.00 | 100 | 1021.7 |
| 20260906045955 | 17 | 88 | 0.0 | 0.0 | 0.00 | 0.00 | 0.00 | 100 | 1021.7 |
| 20260906045456 | 17 | 75 | 0.0 | 0.0 | 0.00 | 0.00 | 0.00 | 100 | 1021.3 |
| 20260906044955 | 17 | 74 | 0.0 | 0.0 | 0.00 | 0.00 | 0.00 | 100 | 1021.3 |
| 20260906044456 | 17 | 61 | 0.0 | 0.0 | 0.00 | 0.00 | 0.00 | 100 | 1021.7 |
| 20260906043956 | 17 | 50 | 0.0 | 0.0 | 0.00 | 0.00 | 0.00 | 100 | 1021.7 |
| 20260906043455 | 17 | 63 | 0.0 | 0.0 | 0.00 | 0.00 | 0.00 | 100 | 1021.3 |
| 20260906042955 | 17 | 108 | 0.0 | 0.0 | 0.00 | 0.00 | 0.00 | 100 | 1021.3 |
| 20260906042455 | 17 | 114 | 0.0 | 0.0 | 0.00 | 0.00 | 0.00 | 100 | 1021.3 |
| 20260906041955 | 17 | 95 | 0.0 | 0.0 | 0.00 | 0.00 | 0.00 | 100 | 1021.3 |
| 20260906041456 | 17 | 95 | 0.0 | 0.0 | 0.00 | 0.00 | 0.00 | 100 | 1021.3 |
| 20260906040955 | 17 | 92 | 0.0 | 0.0 | 0.00 | 0.00 | 0.00 | 100 | 1021.0 |
| 20260906040456 | 17 | 111 | 0.0 | 0.0 | 0.00 | 0.00 | 0.00 | 100 | 1021.0 |
| 20260906035955 | 17 | 128 | 0.0 | 0.0 | 0.00 | 0.00 | 0.00 | 100 | 1021.0 |
| 20260906035456 | 17 | 161 | 0.0 | 0.0 | 0.00 | 0.00 | 0.00 | 100 | 1021.0 |
| 20260906034955 | 17 | 129 | 0.0 | 0.0 | 0.00 | 0.00 | 0.00 | 100 | 1021.0 |
| 20260906034455 | 17 | 141 | 0.0 | 0.0 | 0.00 | 0.00 | 0.00 | 100 | 1021.0 |
| 20260906033955 | 17 | 203 | 0.0 | 0.0 | 0.00 | 0.00 | 0.00 | 100 | 1021.0 |
| 20260906033456 | 17 | 174 | 0.0 | 0.0 | 0.00 | 0.00 | 0.00 | 100 | 1020.7 |
| 20260906032956 | 17 | 190 | 0.0 | 0.0 | 0.00 | 0.00 | 0.00 | 100 | 1020.7 |
| 20260906032455 | 17 | 197 | 0.0 | 0.0 | 0.00 | 0.00 | 0.00 | 100 | 1020.7 |
| 20260906031955 | 17 | 127 | 0.0 | 0.0 | 0.00 | 0.00 | 0.00 | 100 | 1020.3 |
| 20260906031456 | 17 | 159 | 0.0 | 0.0 | 0.00 | 0.00 | 0.00 | 100 | 1020.3 |
| 20260906030955 | 17 | 140 | 0.0 | 0.0 | 0.00 | 0.00 | 0.00 | 100 | 1020.3 |
| 20260906030455 | 17 | 179 | 0.0 | 0.0 | 0.00 | 0.00 | 0.00 | 100 | 1020.3 |
| 20260906025955 | 18 | 202 | 0.0 | 0.0 | 0.00 | 0.00 | 0.00 | 100 | 1020.3 |
| 20260906025455 | 18 | 145 | 0.0 | 0.0 | 0.00 | 0.00 | 0.00 | 100 | 1020.3 |
| 20260906024956 | 18 | 47 | 0.0 | 0.0 | 0.00 | 0.00 | 0.00 | 100 | 1020.3 |
| 20260906024455 | 18 | 114 | 0.0 | 0.0 | 0.00 | 0.00 | 0.00 | 100 | 1020.3 |
| 20260906023955 | 18 | 184 | 0.0 | 0.0 | 0.00 | 0.00 | 0.00 | 100 | 1020.3 |
| 20260906023455 | 18 | 5 | 0.0 | 0.0 | 0.00 | 0.00 | 0.00 | 100 | 1020.0 |
| 20260906022955 | 18 | 102 | 0.0 | 3.2 | 0.00 | 0.00 | 0.00 | 100 | 1020.0 |
| 20260906022455 | 18 | 118 | 0.0 | 3.2 | 0.00 | 0.00 | 0.00 | 100 | 1020.0 |
| 20260906021955 | 18 | 61 | 0.0 | 0.0 | 0.00 | 0.00 | 0.00 | 100 | 1020.0 |
| 20260906021455 | 18 | 113 | 0.0 | 3.2 | 0.00 | 0.00 | 0.00 | 100 | 1020.0 |
| 20260906020955 | 18 | 92 | 0.0 | 3.2 | 0.00 | 0.00 | 0.00 | 100 | 1020.0 |
| 20260906020011 | 18 | 71 | 0.0 | 3.2 | 0.00 | 0.00 | 0.00 | 100 | 1019.6 |
| 20260906015455 | 18 | 109 | 3.2 | 4.8 | 0.00 | 0.00 | 0.00 | 100 | 1019.6 |
| 20260906014955 | 18 | 139 | 0.0 | 0.0 | 0.00 | 0.00 | 0.00 | 100 | 1019.6 |
| 20260906014456 | 18 | 78 | 0.0 | 0.0 | 0.00 | 0.00 | 0.00 | 100 | 1019.6 |
| 20260906013956 | 18 | 106 | 0.0 | 0.0 | 0.00 | 0.00 | 0.00 | 100 | 1019.6 |
| 20260906013457 | 18 | 88 | 0.0 | 0.0 | 0.00 | 0.00 | 0.00 | 100 | 1019.6 |
| 20260906012955 | 18 | 112 | 0.0 | 0.0 | 0.00 | 0.00 | 0.00 | 100 | 1019.6 |
| 20260906012455 | 19 | 71 | 0.0 | 0.0 | 0.00 | 0.00 | 0.00 | 100 | 1019.6 |
| 20260906011958 | 19 | 78 | 0.0 | 0.0 | 0.00 | 0.00 | 0.00 | 100 | 1019.6 |
| 20260906011455 | 19 | 51 | 0.0 | 3.2 | 0.00 | 0.00 | 0.00 | 100 | 1019.6 |
| 20260906010956 | 19 | 96 | 0.0 | 0.0 | 0.00 | 0.00 | 0.00 | 100 | 1019.3 |
| 20260906010458 | 19 | 108 | 0.0 | 0.0 | 0.00 | 0.00 | 0.00 | 100 | 1019.3 |
| 20260906005955 | 19 | 103 | 0.0 | 0.0 | 0.00 | 0.00 | 0.00 | 100 | 1019.3 |
| 20260906005456 | 20 | 90 | 0.0 | 0.0 | 0.00 | 0.00 | 0.00 | 99 | 1019.3 |
| 20260906004955 | 20 | 91 | 0.0 | 0.0 | 0.00 | 0.00 | 0.00 | 98 | 1019.3 |
| 20260906004456 | 20 | 83 | 0.0 | 0.0 | 0.00 | 0.00 | 0.00 | 97 | 1019.3 |
| 20260906003955 | 20 | 71 | 0.0 | 0.0 | 0.00 | 0.00 | 0.00 | 97 | 1019.3 |
| 20260906003455 | 21 | 51 | 0.0 | 0.0 | 0.00 | 0.00 | 0.00 | 96 | 1019.3 |
| 20260906002955 | 21 | 101 | 0.0 | 0.0 | 0.00 | 0.00 | 0.00 | 95 | 1019.3 |
| 20260906002455 | 22 | 109 | 0.0 | 0.0 | 0.00 | 0.00 | 0.00 | 94 | 1019.3 |
| 20260906001957 | 22 | 110 | 0.0 | 0.0 | 0.00 | 0.00 | 0.00 | 93 | 1019.3 |
| 20260906001456 | 22 | 73 | 0.0 | 0.0 | 0.00 | 0.00 | 0.00 | 90 | 1019.3 |
| 20260906000955 | 23 | 56 | 0.0 | 0.0 | 0.00 | 0.00 | 0.00 | 89 | 1019.3 |
| 20260906000455 | 23 | 63 | 0.0 | 0.0 | 0.00 | 0.00 | 0.00 | 87 | 1019.3 |
| 20260905235955 | 23 | 70 | 0.0 | 0.0 | 0.00 | 0.00 | 0.00 | 87 | 1019.3 |
| 20260905235455 | 24 | 42 | 0.0 | 0.0 | 0.00 | 0.00 | 0.00 | 85 | 1019.3 |
| 20260905234955 | 24 | 93 | 0.0 | 0.0 | 0.00 | 0.00 | 0.00 | 85 | 1019.3 |
| 20260905234455 | 24 | 120 | 0.0 | 0.0 | 0.00 | 0.00 | 0.00 | 83 | 1019.3 |
| 20260905233955 | 25 | 132 | 0.0 | 0.0 | 0.00 | 0.00 | 0.00 | 83 | 1019.3 |
| 20260905233455 | 25 | 135 | 0.0 | 0.0 | 0.00 | 0.00 | 0.00 | 81 | 1019.3 |
| 20260905232955 | 25 | 104 | 0.0 | 0.0 | 0.00 | 0.00 | 0.00 | 80 | 1019.3 |
| 20260905232455 | 25 | 63 | 0.0 | 0.0 | 0.00 | 0.00 | 0.00 | 80 | 1019.3 |
| 20260905231955 | 25 | 41 | 0.0 | 0.0 | 0.00 | 0.00 | 0.00 | 81 | 1019.3 |
| 20260905231455 | 25 | 65 | 0.0 | 0.0 | 0.00 | 0.00 | 0.00 | 77 | 1019.3 |
| 20260905230955 | 26 | 54 | 0.0 | 0.0 | 0.00 | 0.00 | 0.00 | 77 | 1019.3 |
| 20260905230455 | 26 | 42 | 0.0 | 0.0 | 0.00 | 0.00 | 0.00 | 78 | 1019.3 |
| 20260905225955 | 26 | 60 | 0.0 | 0.0 | 0.00 | 0.00 | 0.00 | 78 | 1019.6 |
| 20260905225455 | 26 | 42 | 0.0 | 3.2 | 0.00 | 0.00 | 0.00 | 77 | 1019.6 |
| 20260905224955 | 26 | 141 | 0.0 | 4.8 | 0.00 | 0.00 | 0.00 | 77 | 1019.6 |
| 20260905224456 | 26 | 54 | 1.6 | 4.8 | 0.00 | 0.00 | 0.00 | 76 | 1019.6 |
| 20260905223955 | 26 | 43 | 0.0 | 6.4 | 0.00 | 0.00 | 0.00 | 76 | 1019.6 |
| 20260905223456 | 26 | 38 | 1.6 | 6.4 | 0.00 | 0.00 | 0.00 | 76 | 1019.6 |
| 20260905222955 | 26 | 345 | 1.6 | 3.2 | 0.00 | 0.00 | 0.00 | 77 | 1019.6 |
| 20260905222455 | 26 | 339 | 0.0 | 0.0 | 0.00 | 0.00 | 0.00 | 76 | 1019.6 |
| 20260905221955 | 26 | 31 | 0.0 | 0.0 | 0.00 | 0.00 | 0.00 | 78 | 1019.6 |
| 20260905221455 | 26 | 100 | 0.0 | 0.0 | 0.00 | 0.00 | 0.00 | 77 | 1019.6 |
| 20260905220955 | 26 | 55 | 0.0 | 0.0 | 0.00 | 0.00 | 0.00 | 78 | 1019.6 |
| 20260905220455 | 26 | 54 | 0.0 | 0.0 | 0.00 | 0.00 | 0.00 | 77 | 1019.6 |
| 20260905215955 | 26 | 45 | 0.0 | 0.0 | 0.00 | 0.00 | 0.00 | 77 | 1019.6 |
| 20260905215455 | 26 | 81 | 0.0 | 0.0 | 0.00 | 0.00 | 0.00 | 78 | 1019.6 |
| 20260905214955 | 26 | 39 | 0.0 | 0.0 | 0.00 | 0.00 | 0.00 | 77 | 1019.6 |
| 20260905214456 | 26 | 35 | 0.0 | 0.0 | 0.00 | 0.00 | 0.00 | 78 | 1019.6 |
| 20260905213955 | 26 | 75 | 0.0 | 0.0 | 0.00 | 0.00 | 0.00 | 77 | 1019.6 |
| 20260905213455 | 26 | 37 | 0.0 | 0.0 | 0.00 | 0.00 | 0.00 | 76 | 1019.6 |
| 20260905212957 | 26 | 54 | 0.0 | 0.0 | 0.00 | 0.00 | 0.00 | 76 | 1020.0 |
| 20260905212456 | 26 | 38 | 0.0 | 0.0 | 0.00 | 0.00 | 0.00 | 75 | 1019.6 |
| 20260905211955 | 26 | 51 | 0.0 | 0.0 | 0.00 | 0.00 | 0.00 | 73 | 1019.6 |
| 20260905211455 | 26 | 41 | 0.0 | 0.0 | 0.00 | 0.00 | 0.00 | 79 | 1020.0 |
| 20260905210955 | 25 | 181 | 0.0 | 0.0 | 0.00 | 0.00 | 0.00 | 83 | 1020.0 |
| 20260905210458 | 25 | 92 | 0.0 | 0.0 | 0.00 | 0.00 | 0.00 | 82 | 1020.0 |
| 20260905205955 | 24 | 128 | 0.0 | 0.0 | 0.00 | 0.00 | 0.00 | 83 | 1020.0 |
| 20260905205455 | 24 | 63 | 0.0 | 0.0 | 0.00 | 0.00 | 0.00 | 84 | 1020.0 |
| 20260905204955 | 24 | 43 | 0.0 | 0.0 | 0.00 | 0.00 | 0.00 | 83 | 1020.3 |
| 20260905204455 | 24 | 45 | 0.0 | 0.0 | 0.00 | 0.00 | 0.00 | 84 | 1020.3 |
| 20260905203956 | 24 | 100 | 0.0 | 0.0 | 0.00 | 0.00 | 0.00 | 83 | 1020.3 |
| 20260905203456 | 24 | 54 | 0.0 | 0.0 | 0.00 | 0.00 | 0.00 | 83 | 1020.3 |
| 20260905202956 | 24 | 56 | 0.0 | 0.0 | 0.00 | 0.00 | 0.00 | 85 | 1020.3 |
| 20260905202456 | 23 | 111 | 0.0 | 0.0 | 0.00 | 0.00 | 0.00 | 86 | 1020.3 |
| 20260905201958 | 23 | 94 | 0.0 | 0.0 | 0.00 | 0.00 | 0.00 | 87 | 1020.3 |
| 20260905201456 | 23 | 28 | 0.0 | 0.0 | 0.00 | 0.00 | 0.00 | 87 | 1020.3 |
| 20260905200956 | 23 | 104 | 0.0 | 0.0 | 0.00 | 0.00 | 0.00 | 88 | 1020.3 |
| 20260905200456 | 23 | 62 | 0.0 | 0.0 | 0.00 | 0.00 | 0.00 | 88 | 1020.3 |
| 20260905195955 | 23 | 35 | 0.0 | 0.0 | 0.00 | 0.00 | 0.00 | 88 | 1020.3 |
| 20260905195455 | 23 | 51 | 0.0 | 0.0 | 0.00 | 0.00 | 0.00 | 90 | 1020.3 |
| 20260905194957 | 23 | 37 | 0.0 | 0.0 | 0.00 | 0.00 | 0.00 | 89 | 1020.3 |
| 20260905194456 | 23 | 41 | 0.0 | 0.0 | 0.00 | 0.00 | 0.00 | 86 | 1020.3 |
| 20260905193956 | 23 | 109 | 0.0 | 0.0 | 0.00 | 0.00 | 0.00 | 88 | 1020.3 |
| 20260905193456 | 23 | 42 | 0.0 | 0.0 | 0.00 | 0.00 | 0.00 | 87 | 1020.3 |
| 20260905192955 | 23 | 42 | 0.0 | 0.0 | 0.00 | 0.00 | 0.00 | 88 | 1020.0 |
| 20260905192455 | 23 | 43 | 0.0 | 8.0 | 0.00 | 0.00 | 0.00 | 88 | 1020.3 |
| 20260905191955 | 23 | 57 | 6.4 | 11.3 | 0.00 | 0.00 | 0.00 | 86 | 1020.3 |
| 20260905191456 | 23 | 40 | 6.4 | 11.3 | 0.00 | 0.00 | 0.00 | 87 | 1020.3 |
| 20260905190955 | 23 | 101 | 0.0 | 0.0 | 0.00 | 0.00 | 0.00 | 87 | 1020.3 |
| 20260905190455 | 23 | 46 | 0.0 | 8.0 | 0.00 | 0.00 | 0.00 | 87 | 1020.3 |
| 20260905185956 | 23 | 103 | 3.2 | 11.3 | 0.00 | 0.00 | 0.00 | 88 | 1020.3 |
| 20260905185456 | 24 | 94 | 3.2 | 11.3 | 0.00 | 0.00 | 0.00 | 86 | 1020.3 |
| 20260905184955 | 24 | 90 | 0.0 | 0.0 | 0.00 | 0.00 | 0.00 | 85 | 1020.3 |
| 20260905184455 | 24 | 99 | 0.0 | 0.0 | 0.00 | 0.00 | 0.00 | 87 | 1020.3 |
| 20260905183955 | 24 | 26 | 0.0 | 0.0 | 0.00 | 0.00 | 0.00 | 85 | 1020.3 |
| 20260905183456 | 24 | 18 | 0.0 | 0.0 | 0.00 | 0.00 | 0.00 | 85 | 1020.3 |
| 20260905182955 | 24 | 117 | 0.0 | 6.4 | 0.00 | 0.00 | 0.00 | 84 | 1020.3 |
| 20260905182455 | 25 | 63 | 1.6 | 8.0 | 0.00 | 0.00 | 0.00 | 85 | 1020.3 |
| 20260905181955 | 25 | 44 | 0.0 | 8.0 | 0.00 | 0.00 | 0.00 | 84 | 1020.3 |
| 20260905181455 | 25 | 61 | 0.0 | 3.2 | 0.00 | 0.00 | 0.00 | 85 | 1020.3 |
| 20260905180955 | 25 | 94 | 0.0 | 0.0 | 0.00 | 0.00 | 0.00 | 84 | 1020.3 |
| 20260905180456 | 25 | 14 | 0.0 | 0.0 | 0.00 | 0.00 | 0.00 | 85 | 1020.3 |
| 20260905175956 | 25 | 60 | 0.0 | 0.0 | 0.00 | 0.00 | 0.00 | 85 | 1020.3 |
| 20260905175455 | 25 | 86 | 0.0 | 0.0 | 0.00 | 0.00 | 0.00 | 85 | 1020.3 |
| 20260905174955 | 25 | 27 | 0.0 | 0.0 | 0.00 | 0.00 | 0.00 | 83 | 1020.3 |
| 20260905174456 | 25 | 113 | 1.6 | 4.8 | 0.00 | 0.00 | 0.00 | 86 | 1020.3 |
| 20260905173955 | 24 | 57 | 1.6 | 4.8 | 0.00 | 0.00 | 0.00 | 86 | 1020.3 |